FW5736 Weather Reports


Display with metric or nautical units.
time (UTC)temp
F
wind
direction
speed
MPH
gust
MPH
rain 1hr
in
rain 24hr
in
rain mn
in
humidity
%
barometer
mb
20260505075605 66 96 0.0 0.0 0.00 0.00 0.00 65 1017.9
20260505075104 66 96 0.0 0.0 0.00 0.00 0.00 63 1017.8
20260505074604 67 96 0.0 0.0 0.00 0.00 0.00 63 1017.7
20260505074104 67 95 0.0 0.0 0.00 0.00 0.00 62 1017.7
20260505073104 67 95 0.0 0.0 0.00 0.00 0.00 60 1017.6
20260505072104 68 95 0.0 0.0 0.00 0.00 0.00 59 1017.4
20260505071604 68 95 0.0 0.0 0.00 0.00 0.00 60 1017.3
20260505071104 69 95 0.0 0.0 0.00 0.00 0.00 60 1017.2
20260505070604 69 96 0.0 0.0 0.00 0.00 0.00 59 1017.1
20260505070104 70 95 0.0 0.0 0.00 0.00 0.00 58 1017.0
20260505065604 70 96 0.0 0.0 0.00 0.00 0.00 57 1017.0
20260505064604 71 95 0.0 0.0 0.00 0.00 0.00 55 1016.9
20260505064105 71 95 0.0 0.0 0.00 0.00 0.00 54 1016.7
20260505063605 71 81 0.0 0.0 0.00 0.00 0.00 55 1016.7
20260505063104 72 80 0.0 0.0 0.00 0.00 0.00 54 1016.7
20260505062604 72 80 0.0 0.0 0.00 0.00 0.00 53 1016.7
20260505062105 73 80 0.0 0.0 0.00 0.00 0.00 53 1016.7
20260505061605 73 80 0.0 0.0 0.00 0.00 0.00 52 1016.6
20260505061105 74 80 0.0 0.0 0.00 0.00 0.00 52 1016.6
20260505060605 74 80 0.0 0.0 0.00 0.00 0.00 52 1016.6
20260505060105 75 80 0.0 0.0 0.00 0.00 0.00 51 1016.6
20260505055604 75 79 0.0 0.0 0.00 0.00 0.00 51 1016.5
20260505055105 75 79 0.0 0.0 0.00 0.00 0.00 51 1016.6
20260505054104 75 76 0.0 0.0 0.00 0.00 0.00 50 1016.5
20260505053604 76 75 0.0 0.0 0.00 0.00 0.00 49 1016.5
20260505053104 76 75 0.0 0.0 0.00 0.00 0.00 49 1016.5
20260505052604 76 74 0.0 0.0 0.00 0.00 0.00 51 1016.4
20260505052104 76 74 0.0 0.0 0.00 0.00 0.00 50 1016.3
20260505051104 76 86 0.0 3.0 0.00 0.00 0.00 49 1016.3
20260505050604 76 57 1.0 3.0 0.00 0.00 0.00 51 1016.3
20260505050104 76 55 1.0 5.0 0.00 0.00 0.00 52 1016.2
20260505041604 74 359 1.0 3.0 0.00 0.00 0.00 49 1015.7
20260505040604 74 82 3.0 9.0 0.00 0.00 0.00 47 1015.7
20260505040104 74 359 0.0 0.0 0.00 0.00 0.00 48 1015.6
20260505035604 74 359 0.0 3.0 0.00 0.00 0.00 49 1015.6
20260505035104 74 359 0.0 1.0 0.00 0.00 0.00 51 1015.6
20260505034104 73 359 0.0 3.0 0.00 0.00 0.00 49 1015.7
20260505033105 73 3 2.0 5.0 0.00 0.00 0.00 51 1015.8
20260505032605 73 359 2.0 7.0 0.00 0.00 0.00 49 1015.9
20260505032105 73 359 1.0 6.0 0.00 0.00 0.00 53 1016.0
20260505031605 72 6 4.0 10.0 0.00 0.00 0.00 52 1016.0
20260505031105 72 0 3.0 6.0 0.00 0.00 0.00 52 1016.1
20260505030605 72 4 4.0 10.0 0.00 0.00 0.00 53 1016.0
20260505030105 71 359 2.0 8.0 0.00 0.00 0.00 52 1016.1
20260505025604 71 46 3.0 8.0 0.00 0.00 0.00 53 1016.1
20260505025104 71 359 1.0 8.0 0.00 0.00 0.00 54 1016.2
20260505024104 71 3 5.0 10.0 0.00 0.00 0.00 55 1016.2
20260505023604 70 33 7.0 14.0 0.00 0.00 0.00 54 1016.2
20260505022604 70 99 3.0 7.0 0.00 0.00 0.00 56 1016.4
20260505022105 69 359 6.0 15.0 0.00 0.00 0.00 56 1016.5
20260505021605 69 359 3.0 10.0 0.00 0.00 0.00 57 1016.5
20260505021104 69 73 2.0 14.0 0.00 0.00 0.00 57 1016.6
20260505020605 69 3 9.0 20.0 0.00 0.00 0.00 56 1016.6
20260505020104 69 132 3.0 9.0 0.00 0.00 0.00 58 1016.8
20260505015605 68 7 7.0 12.0 0.00 0.00 0.00 59 1016.8
20260505015105 68 359 6.0 12.0 0.00 0.00 0.00 58 1016.9
20260505014104 68 11 6.0 9.0 0.00 0.00 0.00 59 1016.9
20260505013604 67 6 7.0 13.0 0.00 0.00 0.00 58 1016.9
20260505012604 67 93 5.0 14.0 0.00 0.00 0.00 60 1017.0
20260505012104 67 1 5.0 14.0 0.00 0.00 0.00 60 1017.1
20260505005104 66 4 3.0 7.0 0.00 0.00 0.00 65 1017.6
20260505004604 65 359 4.0 12.0 0.00 0.00 0.00 64 1017.6
20260505002604 64 15 7.0 21.0 0.00 0.00 0.00 66 1017.6
20260505002104 64 3 8.0 14.0 0.00 0.00 0.00 66 1017.5
20260505001604 64 359 6.0 14.0 0.00 0.00 0.00 68 1017.6
20260505001104 63 359 4.0 12.0 0.00 0.00 0.00 70 1017.7
20260505000604 63 359 3.0 10.0 0.00 0.00 0.00 71 1017.7
20260505000104 63 5 5.0 12.0 0.00 0.00 0.00 71 1017.9
20260504235605 62 29 2.0 12.0 0.00 0.00 0.00 72 1017.8
20260504235104 62 2 6.0 12.0 0.00 0.00 0.00 73 1017.7
20260504234604 62 0 3.0 8.0 0.00 0.01 0.00 73 1017.8
20260504234104 62 6 6.0 9.0 0.00 0.01 0.00 73 1018.0
20260504233605 61 118 3.0 8.0 0.00 0.01 0.00 73 1018.1
20260504233105 61 359 2.0 10.0 0.00 0.01 0.00 73 1018.1
20260504232605 61 42 3.0 10.0 0.00 0.01 0.00 73 1018.0
20260504232104 61 2 4.0 7.0 0.00 0.01 0.00 73 1018.0
20260504231605 61 359 2.0 8.0 0.00 0.01 0.00 74 1018.1
20260504231104 60 359 3.0 10.0 0.00 0.01 0.00 74 1018.1
20260504230105 60 126 1.0 5.0 0.00 0.01 0.00 75 1018.1
20260504225104 60 1 2.0 7.0 0.00 0.01 0.00 76 1017.9
20260504224604 59 126 1.0 5.0 0.00 0.01 0.00 76 1018.0
20260504224104 59 73 1.0 6.0 0.00 0.01 0.00 76 1018.0
20260504223604 59 359 3.0 6.0 0.00 0.01 0.00 77 1018.0
20260504222604 59 359 2.0 6.0 0.00 0.01 0.00 78 1018.0
20260504222104 58 359 0.0 7.0 0.00 0.01 0.00 78 1018.0
20260504221604 58 359 3.0 7.0 0.00 0.01 0.00 78 1017.9
20260504221104 58 359 1.0 5.0 0.00 0.01 0.00 79 1017.8
20260504220604 58 359 1.0 6.0 0.00 0.01 0.00 79 1017.8
20260504215604 57 359 2.0 6.0 0.00 0.01 0.00 79 1017.8
20260504215104 57 359 0.0 3.0 0.00 0.01 0.00 79 1017.7
20260504214604 57 114 0.0 0.0 0.00 0.01 0.00 79 1017.6
20260504214104 57 131 0.0 3.0 0.00 0.01 0.00 79 1017.6
20260504213604 57 118 0.0 0.0 0.00 0.01 0.00 79 1017.4
20260504213104 57 83 1.0 3.0 0.00 0.01 0.00 79 1017.4
20260504212604 57 359 1.0 6.0 0.00 0.01 0.00 79 1017.3
20260504212104 57 359 1.0 3.0 0.00 0.01 0.00 79 1017.2
20260504211604 57 359 1.0 5.0 0.00 0.01 0.00 79 1017.1
20260504211104 57 359 2.0 7.0 0.00 0.01 0.00 79 1016.9
20260504205103 57 359 3.0 7.0 0.00 0.01 0.00 79 1016.6
20260504204604 57 359 3.0 6.0 0.00 0.01 0.00 80 1016.5
20260504203604 57 359 2.0 6.0 0.00 0.01 0.00 80 1016.4
20260504203104 57 359 1.0 5.0 0.00 0.01 0.00 79 1016.4
20260504202604 57 0 0.0 3.0 0.00 0.01 0.00 79 1016.4
20260504202104 57 0 1.0 3.0 0.00 0.01 0.00 79 1016.4
20260504201604 57 359 0.0 2.0 0.00 0.01 0.00 79 1016.4
20260504201104 57 359 0.0 1.0 0.00 0.01 0.00 79 1016.4
20260504200604 57 0 0.0 3.0 0.00 0.01 0.00 79 1016.4
20260504200104 57 359 1.0 5.0 0.00 0.01 0.00 79 1016.3
20260504195604 57 359 2.0 5.0 0.00 0.01 0.00 79 1016.3
20260504195103 57 359 3.0 6.0 0.00 0.01 0.00 79 1016.2
20260504194104 57 32 5.0 6.0 0.00 0.01 0.00 78 1016.1
20260504193604 58 67 4.0 5.0 0.00 0.01 0.00 77 1016.0
20260504193104 58 122 3.0 5.0 0.00 0.01 0.00 77 1016.0
20260504192104 58 72 0.0 5.0 0.00 0.01 0.00 76 1016.0
20260504191604 59 119 2.0 5.0 0.00 0.01 0.00 75 1016.0
20260504191104 59 127 1.0 3.0 0.00 0.01 0.00 75 1015.9
20260504190604 59 108 3.0 5.0 0.00 0.01 0.00 75 1015.9
20260504185104 59 120 4.0 6.0 0.00 0.01 0.00 74 1015.7
20260504184604 59 4 5.0 9.0 0.00 0.01 0.00 74 1015.5
20260504184104 59 38 6.0 10.0 0.00 0.01 0.00 74 1015.5
20260504183604 60 44 7.0 10.0 0.00 0.01 0.00 73 1015.4
20260504182604 60 5 5.0 8.0 0.00 0.01 0.00 73 1015.4
20260504182104 60 25 5.0 7.0 0.00 0.01 0.00 73 1015.4
20260504181604 60 359 6.0 14.0 0.00 0.01 0.00 73 1015.3
20260504181104 60 1 7.0 12.0 0.00 0.01 0.00 74 1015.2
20260504180604 60 4 7.0 13.0 0.00 0.01 0.00 74 1015.1
20260504180104 60 23 7.0 12.0 0.00 0.01 0.00 74 1015.1
20260504175604 60 14 7.0 12.0 0.00 0.01 0.00 74 1015.2
20260504175104 60 359 6.0 12.0 0.00 0.01 0.00 74 1015.1
20260504174104 60 98 6.0 9.0 0.00 0.01 0.00 73 1015.1
20260504173604 60 21 6.0 13.0 0.00 0.01 0.00 73 1015.1
20260504172604 60 359 7.0 12.0 0.00 0.01 0.00 74 1015.1
20260504172104 60 3 7.0 15.0 0.00 0.01 0.00 74 1015.0
20260504171604 60 359 6.0 10.0 0.00 0.01 0.00 75 1015.0
20260504171104 60 4 7.0 9.0 0.00 0.01 0.00 75 1015.0
20260504170604 61 12 6.0 9.0 0.00 0.01 0.00 75 1015.1
20260504170104 61 8 6.0 10.0 0.00 0.01 0.00 75 1015.1
20260504160105 62 359 6.0 8.0 0.00 0.01 0.00 74 1015.1
20260504151105 63 4 4.0 7.0 0.00 0.01 0.00 76 1015.1
20260504150105 63 10 5.0 12.0 0.00 0.01 0.00 76 1015.1
20260504140605 63 92 5.0 9.0 0.00 0.01 0.00 80 1015.0
20260504140105 63 3 7.0 12.0 0.00 0.01 0.00 81 1014.7
20260504130605 64 2 2.0 8.0 0.00 0.01 0.01 91 1014.9
20260504130105 64 17 4.0 8.0 0.00 0.01 0.01 91 1014.9
20260504120106 64 359 0.0 0.0 0.00 0.01 0.01 88 1015.2
20260504110605 66 359 0.0 0.0 0.00 0.01 0.01 85 1014.7
20260504110105 66 359 0.0 0.0 0.00 0.01 0.01 85 1014.6
20260504100605 67 359 0.0 0.0 0.00 0.01 0.01 85 1013.8
20260504100105 67 359 0.0 0.0 0.00 0.01 0.01 85 1013.8
20260504090105 67 359 0.0 0.0 0.00 0.01 0.01 87 1013.8
20260504081605 67 359 0.0 0.0 0.00 0.01 0.01 86 1013.5
20260504081105 67 359 0.0 0.0 0.00 0.01 0.01 86 1013.6
20260504080105 67 359 0.0 0.0 0.00 0.01 0.01 86 1013.4